Date String (YYYY-MM-DD hh:mm:ss) UTC,Instrument flags,Ambient pressure (hPa),Sample flow (lpm),Bypass flow (lpm),Sample temperature (°C),Ambient temperature (°C),ASC tube jacket temperature (°C),LED temperature (°C),Box temperature (°C),Sample RH (%),Span deviation,Mass concentration (μg/m³),Mass concentration (μg/m³),Mass concentration (μg/m³)
DateTimeUTC,F1_M11,P_M11,Q1_M11,Q2_M11,T1_M11,T2_M11,T3_M11,T4_M11,T5_M11,U1_M11,ZSPAN_M11,X0_M11,X2_M11,X1_M11
2023-05-08 12:00:00,,0831.4,5.00,0.00,29.2,27.4,00.0,37.6,30.5,15.3,0000.0,0008.46,0003.49,0002.57
2023-05-08 12:01:00,,0831.5,5.00,0.00,29.1,27.3,00.0,37.6,30.4,15.2,0000.0,0008.55,0003.49,0002.53
2023-05-08 12:02:00,,0831.4,4.99,0.00,29.1,27.3,00.0,37.6,30.4,15.2,0000.0,0008.51,0003.46,0002.50
2023-05-08 12:03:00,,0831.4,4.99,0.00,29.1,27.3,00.0,37.6,30.5,15.2,0000.0,0009.05,0003.41,0002.47
2023-05-08 12:04:00,,0831.5,5.00,0.00,29.1,27.3,00.0,37.6,30.4,15.2,0000.0,0009.08,0003.40,0002.43
2023-05-08 12:05:00,,0831.4,5.00,0.00,29.1,27.2,00.0,37.6,30.4,15.0,0000.0,0009.17,0003.36,0002.38
2023-05-08 12:06:00,,0831.4,5.00,0.00,29.1,27.2,00.0,37.6,30.4,14.9,0000.0,0009.78,0003.34,0002.33
2023-05-08 12:07:00,,0831.4,5.00,0.00,29.1,27.2,00.0,37.6,30.5,14.9,0000.0,0009.86,0003.37,0002.33
2023-05-08 12:08:00,,0831.5,5.00,0.00,29.1,27.2,00.0,37.5,30.4,15.1,0000.0,0009.81,0003.36,0002.31
2023-05-08 12:09:00,,0831.5,5.00,0.00,29.0,27.2,00.0,37.5,30.4,15.2,0000.0,0009.38,0003.37,0002.27
2023-05-08 12:10:00,,0831.5,4.99,0.00,29.0,27.2,00.0,37.5,30.4,15.3,0000.0,0008.69,0003.32,0002.22
2023-05-08 12:11:00,,0831.5,5.00,0.00,29.0,27.2,00.0,37.5,30.3,15.4,0000.0,0008.57,0003.27,0002.19
2023-05-08 12:12:00,,0831.5,5.01,0.00,29.0,27.2,00.0,37.5,30.3,15.4,0000.0,0008.48,0003.25,0002.18
2023-05-08 12:13:00,,0831.5,5.00,0.00,29.0,27.2,00.0,37.5,30.3,15.5,0000.0,0008.20,0003.26,0002.17
2023-05-08 12:14:00,,0831.5,5.00,0.00,29.0,27.1,00.0,37.5,30.3,15.6,0000.0,0007.55,0003.26,0002.15
2023-05-08 12:15:00,,0831.5,5.00,0.00,29.0,27.1,00.0,37.4,30.3,15.6,0000.0,0007.33,0003.21,0002.13
2023-05-08 12:16:00,,0831.5,5.00,0.00,29.0,27.1,00.0,37.4,30.3,15.6,0000.0,0006.92,0003.18,0002.12
2023-05-08 12:17:00,,0831.5,5.00,0.00,29.0,27.1,00.0,37.4,30.3,15.8,0000.0,0006.24,0003.18,0002.11
2023-05-08 12:18:00,,0831.5,5.00,0.00,28.9,27.1,00.0,37.4,30.3,16.0,0000.0,0006.99,0003.17,0002.10
2023-05-08 12:19:00,,0831.5,5.00,0.00,28.9,27.1,00.0,37.4,30.2,16.0,0000.0,0007.37,0003.18,0002.11
2023-05-08 12:20:00,,0831.5,5.00,0.00,28.9,27.0,00.0,37.4,30.2,15.8,0000.0,0007.45,0003.13,0002.11
2023-05-08 12:21:00,,0831.5,5.00,0.00,28.9,27.0,00.0,37.4,30.2,15.7,0000.0,0007.45,0003.14,0002.12
2023-05-08 12:22:00,,0831.5,5.00,0.00,28.9,27.0,00.0,37.4,30.2,15.6,0000.0,0007.63,0003.20,0002.13
2023-05-08 12:23:00,,0831.5,4.99,0.00,28.9,27.0,00.0,37.4,30.3,15.6,0000.0,0007.65,0003.21,0002.13
2023-05-08 12:24:00,,0831.5,5.00,0.00,28.9,27.0,00.0,37.3,30.2,15.6,0000.0,0007.64,0003.20,0002.13
2023-05-08 12:25:00,,0831.5,5.01,0.00,28.9,27.0,00.0,37.3,30.3,15.7,0000.0,0007.74,0003.20,0002.14
2023-05-08 12:26:00,,0831.5,5.01,0.00,28.9,27.0,00.0,37.3,30.2,15.8,0000.0,0007.97,0003.22,0002.17
2023-05-08 12:27:00,,0831.5,5.01,0.00,28.9,27.0,00.0,37.3,30.2,15.8,0000.0,0008.10,0003.25,0002.17
2023-05-08 12:28:00,,0831.6,4.99,0.00,28.8,27.0,00.0,37.3,30.2,16.0,0000.0,0008.03,0003.27,0002.19
2023-05-08 12:29:00,,0831.6,4.99,0.00,28.8,27.0,00.0,37.3,30.2,15.9,0000.0,0007.40,0003.24,0002.20
2023-05-08 12:30:00,,0831.6,5.00,0.00,28.8,27.1,00.0,37.3,30.2,15.8,0000.0,0007.24,0003.26,0002.19
2023-05-08 12:31:00,,0831.6,5.01,0.00,28.8,27.1,00.0,37.3,30.2,15.9,0000.0,0006.89,0003.29,0002.20
2023-05-08 12:32:00,,0831.6,5.01,0.00,28.8,27.1,00.0,37.3,30.2,16.0,0000.0,0007.37,0003.32,0002.22
2023-05-08 12:33:00,,0831.6,5.00,0.00,28.8,27.0,00.0,37.3,30.2,16.1,0000.0,0007.95,0003.29,0002.23
2023-05-08 12:34:00,,0831.6,5.00,0.00,28.8,27.0,00.0,37.3,30.2,16.1,0000.0,0007.95,0003.31,0002.27
2023-05-08 12:35:00,,0831.6,4.99,0.00,28.8,27.0,00.0,37.3,30.1,16.2,0000.0,0008.68,0003.35,0002.30
2023-05-08 12:36:00,,0831.6,5.00,0.00,28.8,27.0,00.0,37.2,30.2,16.2,0000.0,0008.86,0003.39,0002.32
2023-05-08 12:37:00,,0831.6,5.00,0.00,28.8,27.0,00.0,37.2,30.2,16.2,0000.0,0008.82,0003.40,0002.33
2023-05-08 12:38:00,,0831.6,5.01,0.00,28.8,27.0,00.0,37.2,30.1,16.2,0000.0,0009.16,0003.39,0002.33
2023-05-08 12:39:00,,0831.7,5.00,0.00,28.8,27.0,00.0,37.2,30.2,16.2,0000.0,0009.32,0003.39,0002.34
2023-05-08 12:40:00,,0831.6,5.00,0.00,28.8,27.0,00.0,37.2,30.2,16.3,0000.0,0009.74,0003.43,0002.34
2023-05-08 12:41:00,,0831.6,4.98,0.00,28.8,27.0,00.0,37.2,30.1,16.3,0000.0,0009.89,0003.44,0002.37
2023-05-08 12:42:00,,0831.6,5.00,0.00,28.8,27.0,00.0,37.2,30.2,16.4,0000.0,0009.98,0003.48,0002.43
2023-05-08 12:43:00,,0831.7,5.00,0.00,28.8,27.0,00.0,37.2,30.2,16.4,0000.0,0010.46,0003.49,0002.48
2023-05-08 12:44:00,,0831.6,5.00,0.00,28.8,27.1,00.0,37.2,30.2,16.4,0000.0,0010.62,0003.55,0002.52
2023-05-08 12:45:00,,0831.6,5.01,0.00,28.8,27.1,00.0,37.2,30.2,16.4,0000.0,0011.06,0003.58,0002.54
2023-05-08 12:46:00,,0831.6,4.98,0.00,28.8,27.1,00.0,37.2,30.1,16.4,0000.0,0010.82,0003.65,0002.58
2023-05-08 12:47:00,,0831.6,5.01,0.00,28.8,27.1,00.0,37.2,30.2,16.4,0000.0,0011.30,0003.70,0002.62
2023-05-08 12:48:00,,0831.7,5.01,0.00,28.8,27.1,00.0,37.2,30.2,16.6,0000.0,0011.83,0003.82,0002.69
2023-05-08 12:49:00,,0831.7,5.01,0.00,28.8,27.1,00.0,37.2,30.2,16.6,0000.0,0011.89,0003.89,0002.76
2023-05-08 12:50:00,,0831.6,4.98,0.00,28.8,27.1,00.0,37.2,30.2,16.7,0000.0,0011.75,0003.92,0002.83
2023-05-08 12:51:00,,0831.6,5.01,0.00,28.8,27.1,00.0,37.2,30.2,16.7,0000.0,0011.52,0003.97,0002.89
2023-05-08 12:52:00,,0831.6,5.01,0.00,28.8,27.1,00.0,37.2,30.2,16.8,0000.0,0011.72,0004.03,0002.96
2023-05-08 12:53:00,,0831.6,5.01,0.00,28.8,27.1,00.0,37.2,30.2,16.8,0000.0,0012.24,0004.07,0003.04
2023-05-08 12:54:00,,0831.6,4.98,0.00,28.8,27.1,00.0,37.2,30.2,16.8,0000.0,0011.91,0004.15,0003.10
2023-05-08 12:55:00,,0831.7,4.99,0.00,28.8,27.1,00.0,37.2,30.2,16.9,0000.0,0011.62,0004.19,0003.15
2023-05-08 12:56:00,,0831.6,5.00,0.00,28.8,27.1,00.0,37.2,30.2,16.9,0000.0,0011.27,0004.26,0003.20
2023-05-08 12:57:00,,0831.7,5.02,0.00,28.8,27.1,00.0,37.2,30.2,17.0,0000.0,0011.04,0004.26,0003.25
2023-05-08 12:58:00,,0831.6,4.99,0.00,28.8,27.1,00.0,37.2,30.2,17.0,0000.0,0011.04,0004.25,0003.29
2023-05-08 12:59:00,,0831.7,4.99,0.00,28.8,27.1,00.0,37.2,30.2,17.0,0000.0,0010.55,0004.23,0003.32
